SCP
1 1 2 3 3 3 4 4 5 5 5 5 5 5 5 5 5 5 6 5 5 5 4 4 4 3 3 2 2 2 2 2 2 2 2 2 2 2 2 2 2 2 2
1 1 2 3 3 3 4 4 4 4 5 5 5 5 5 5 5 5 5 5 5 5 4 4 4 3 3 2 2 2 2 2 2 2 2 2 2 2 2 2 2 2 2
1 2 2 3 3 3 4 4 4 4 4 4 4 4 4 4 4 5 5 5 4 4 4 4 4 3 3 2 2 2 2 2 2 1 1 1 1 2 2 2 2 2 2
1 2 2 3 3 3 3 4 4 4 4 4 3 3 4 4 4 4 4 4 4 4 4 4 4 3 3 2 2 2 1 1 1 1 1 1 1 2 2 2 2 2 2
1 2 2 3 3 3 3 3 3 3 3 3 3 3 3 3 3 3 3 3 3 3 3 3 3 3 2 2 2 1 1 1 1 1 1 1 1 2 2 2 2 2 2
1 1 2 3 3 3 3 3 3 3 3 2 2 2 2 2 2 2 2 2 3 3 3 3 3 2 2 2 2 2 1 1 1 1 1 1 1 1 1 1 1 1 1
1 1 2 3 3 2 2 2 2 2 2 2 2 2 2 2 2 2 2 2 2 2 2 2 2 2 2 2 2 2 1 1 1 1 1 1 1 1 1 1 1 1 1
1 1 2 2 2 2 2 2 2 2 2 2 2 2 2 2 2 1 1 1 2 2 2 2 2 2 2 3 3 2 1 1 1 1 1 1 1 1 1 1 1 1 1
1 1 1 2 2 1 2 2 2 2 2 2 2 2 2 1 1 1 1 1 1 1 1 1 1 2 2 3 2 2 1 1 1 1 1 1 1 1 1 1 1 1 1
1 1 1 1 1 1 1 1 1 1 2 2 2 2 2 1 1 1 1 1 1 1 1 1 1 1 2 2 2 2 1 1 1 1 1 1 1 1 1 1 1 1 1
1 1 1 1 1 1 1 1 1 1 1 2 2 2 2 1 1 1 1 1 1 1 1 1 1 1 1 2 2 2 1 1 1 1 1 1 1 1 1 1 1 1 1
1 1 1 1 1 1 1 1 1 1 1 2 2 2 2 1 1 1 1 1 1 1 1 1 1 1 1 1 1 1 1 1 1 1 1 1 2 1 1 1 1 1 1
2 1 1 1 1 1 1 1 1 1 2 2 2 2 2 1 1 1 1 1 1 1 1 1 1 1 1 1 1 1 1 1 1 1 1 1 1 1 1 1 1 1 1
2 2 1 1 1 1 1 1 1 1 2 2 2 2 2 1 1 1 1 1 1 1 1 1 1 1 1 1 1 1 1 1 1 1 1 1 1 1 1 1 1 1 1
2 2 2 2 2 2 2 1 1 1 2 2 2 2 2 1 1 1 1 1 1 1 1 1 1 1 1 1 1 1 1 1 1 1 1 1 1 1 1 1 1 1 1
2 2 3 3 3 2 2 2 1 1 2 2 2 2 2 1 1 1 1 1 1 1 1 1 1 1 1 2 2 2 1 1 1 1 1 1 1 1 1 1 1 1 1
2 3 3 3 3 3 2 2 2 1 1 1 1 1 1 1 1 1 1 1 1 1 1 1 1 1 1 2 2 2 2 1 1 1 1 1 1 1 1 1 1 1 1
3 3 4 3 3 2 2 2 2 1 1 1 1 1 1 1 1 1 1 1 1 1 1 1 1 2 2 1 1 2 2 2 1 1 1 0 0 0 1 1 1 1 1
3 3 4 3 3 2 2 2 2 2 2 2 2 1 1 2 2 2 2 2 2 2 2 2 2 2 2 2 1 1 1 1 1 1 1 1 0 0 0 1 1 1 1
3 4 4 4 3 3 2 2 2 2 2 2 2 2 2 2 2 2 3 3 3 3 4 4 4 3 3 2 2 1 1 1 1 1 1 1 1 0 0 1 1 1 1
4 4 4 3 3 3 3 3 3 3 3 2 2 2 2 2 3 3 3 4 5 5 5 5 5 4 4 3 3 2 1 1 1 1 1 1 1 1 1 1 1 1 1
4 4 3 3 2 2 3 3 3 3 3 3 3 3 3 3 3 4 4 5 6 7 6 6 6 5 5 5 4 2 1 1 1 1 1 1 1 1 1 1 1 1 1
4 3 3 2 2 2 2 3 3 3 3 3 3 4 4 4 4 5 6 6 7 8 8 7 7 7 6 6 5 3 2 2 1 1 1 1 2 2 1 1 1 1 1
4 4 3 3 3 2 3 3 3 3 4 4 4 5 5 5 6 6 7 8 8 9 9 8 8 7 7 7 6 5 4 3 2 1 1 1 2 2 2 1 1 1 1
5 4 4 3 3 3 3 4 4 4 4 5 5 6 6 7 7 7 8 8 9 8 8 7 8 7 7 6 6 6 5 4 3 2 1 1 2 2 1 1 1 1 1
5 5 4 4 4 4 4 4 5 5 5 6 6 7 7 7 7 8 8 8 8 7 7 7 7 7 6 5 6 6 7 6 4 2 2 1 1 1 1 1 1 1 1
Wind_Speed
7 10 12 11 12 13 14 15 15 16 16 16 16 15 15 15 15 15 15 15 15 16 16 16 16 16 16 16 16 16 15 15 15 16 16 16 15 14 13 13 13 14 16
10 12 12 12 12 13 14 14 15 15 15 15 15 15 15 15 15 15 15 15 16 16 17 16 16 16 16 16 16 15 15 15 15 15 16 15 15 13 12 11 12 13 15
12 12 13 12 13 13 13 14 14 15 15 15 15 14 15 15 15 15 15 15 16 17 17 16 16 16 16 16 15 15 15 14 13 13 12 13 14 13 13 14 16 15 15
12 12 12 13 13 13 13 13 14 14 15 14 14 14 15 15 15 15 15 15 16 16 16 16 16 16 16 15 15 14 14 13 10 8 8 11 13 14 14 14 14 14 14
12 12 14 13 13 13 13 12 13 14 14 14 14 14 14 14 15 15 15 15 15 16 16 16 16 15 15 14 14 13 13 11 7 6 10 11 12 13 13 14 14 14 14
12 13 15 12 13 13 12 12 12 13 13 14 14 14 14 14 14 15 15 15 15 15 15 15 15 14 14 14 13 13 11 8 7 9 9 10 12 13 13 13 13 13 13
13 13 15 13 13 12 12 12 12 12 13 13 14 14 14 14 14 15 15 14 14 14 15 14 14 13 13 12 12 11 8 3 5 9 9 10 12 12 12 12 12 12 12
13 13 14 13 12 12 12 12 12 12 12 13 13 14 14 14 14 14 15 14 14 13 13 13 13 13 13 12 11 10 6 3 8 9 9 11 12 11 12 12 12 12 12
11 12 12 13 12 12 11 12 11 11 12 12 13 13 14 14 13 14 14 13 13 12 12 12 12 12 11 11 10 8 4 3 5 7 9 9 11 11 11 12 12 12 12
10 10 10 10 10 11 12 12 11 11 11 12 12 13 13 14 13 12 12 12 12 12 11 11 11 11 10 10 9 8 5 5 6 7 7 10 11 11 11 11 11 11 11
9 8 9 10 9 9 10 12 11 11 10 10 11 11 10 9 10 9 13 11 11 11 10 10 10 10 10 10 9 7 6 2 7 5 7 12 10 10 10 10 10 10 10
11 10 8 9 9 8 7 8 7 7 7 6 7 7 5 6 5 8 11 10 10 10 10 9 9 9 6 7 8 7 3 5 5 5 8 11 9 9 10 9 9 9 9
11 10 9 8 7 7 6 5 4 4 5 6 7 6 5 5 5 6 6 7 7 8 7 8 7 4 3 4 2 3 3 3 3 5 9 10 8 8 9 9 8 8 8
11 10 9 9 7 5 5 5 5 4 4 4 6 5 5 3 3 4 3 4 4 3 3 3 3 4 3 4 3 3 3 2 3 4 8 10 8 8 9 9 8 8 7
11 10 9 9 8 7 5 4 4 4 4 4 4 4 3 4 3 4 2 2 2 3 4 2 3 4 3 3 2 3 2 3 3 3 6 9 8 8 8 9 8 8 8
12 11 10 9 8 7 6 4 4 4 3 3 3 4 3 3 3 3 3 2 2 2 2 1 3 3 2 1 2 2 2 2 3 3 4 8 9 8 8 8 8 8 8
12 11 11 10 9 8 7 6 5 4 5 4 4 4 4 4 4 3 3 3 2 2 3 1 2 1 2 2 2 2 2 1 2 2 2 3 7 10 9 8 8 8 8
11 11 11 10 10 9 7 5 4 4 4 4 4 4 5 4 4 3 3 2 2 2 2 2 2 1 1 1 1 1 2 2 2 3 3 4 3 5 10 11 9 9 9
12 11 11 10 10 10 8 6 5 4 4 4 4 4 5 5 5 4 3 2 3 3 2 3 2 2 2 1 2 2 2 3 3 4 4 5 4 4 5 11 11 10 10
11 11 11 11 10 9 8 6 5 6 5 5 4 4 5 5 5 5 4 4 4 3 2 2 1 2 2 3 3 1 2 3 4 4 5 5 5 6 6 6 8 10 13
12 12 12 12 10 9 7 7 7 7 6 5 5 6 6 6 6 6 4 4 4 3 3 4 4 4 4 3 3 3 4 6 5 5 5 5 6 6 6 6 6 6 8
13 13 13 12 12 11 8 7 5 5 5 5 4 5 6 7 7 7 6 5 5 4 5 5 5 4 3 4 3 3 3 4 6 6 6 6 7 6 7 8 7 7 6
15 15 13 13 13 12 10 8 6 5 5 5 6 6 6 7 8 7 7 6 5 6 5 6 6 7 5 4 4 4 3 3 1 3 6 6 5 5 7 6 8 8 9
15 14 14 13 13 12 12 10 10 8 7 7 6 5 6 7 7 7 7 7 6 6 5 7 6 5 6 5 4 5 5 4 3 2 4 6 7 7 8 7 7 9 9
15 14 14 14 13 13 12 11 11 9 7 5 6 6 6 6 7 8 7 7 7 6 6 7 5 6 6 6 5 5 5 5 7 6 5 4 5 6 7 8 7 7 8
14 14 14 14 14 13 13 12 11 10 9 8 7 6 7 6 6 8 7 7 7 7 7 7 7 8 7 7 6 6 5 5 5 6 6 6 5 5 5 5 7 7 7
Wind_Direction
107 102 103 104 102 101 103 103 103 104 106 106 105 105 104 102 101 100 100 101 102 104 106 107 107 108 108 108 107 106 106 106 106 106 105 104 104 106 108 115 119 106 106
116 108 108 106 105 102 104 105 105 105 105 104 104 105 105 104 102 101 101 101 102 102 103 103 105 106 107 108 107 106 107 108 109 111 113 109 104 103 100 93 84 102 111
117 115 116 106 106 104 104 106 106 106 106 106 106 106 105 104 104 104 103 102 101 101 101 102 104 105 106 107 106 105 107 109 114 125 138 118 109 104 101 99 100 109 111
120 120 112 109 108 105 103 105 107 107 107 106 106 106 105 105 104 103 102 102 102 102 102 102 102 103 105 105 105 105 107 112 124 158 128 107 109 106 107 106 109 111 111
120 116 110 113 110 107 105 104 106 107 108 108 106 107 106 106 104 103 103 103 103 104 102 101 101 101 103 104 103 105 108 116 143 133 96 100 102 109 111 112 112 111 110
125 119 113 116 112 109 108 106 106 108 108 108 108 107 106 105 105 104 103 103 103 104 103 102 101 102 105 105 105 107 113 141 167 103 107 108 107 113 113 113 112 111 111
124 119 118 117 112 110 109 108 106 107 110 110 109 109 108 108 106 104 104 104 104 104 104 103 103 104 107 107 106 108 114 164 107 101 103 99 102 113 111 111 111 111 111
126 123 120 120 116 113 112 112 110 109 111 111 110 110 110 108 107 107 107 106 106 105 104 104 104 103 104 104 107 111 127 206 114 106 104 100 104 114 114 114 113 113 113
128 127 129 131 127 119 113 113 113 111 112 113 111 111 110 108 107 107 108 108 108 106 105 105 106 108 108 108 109 111 113 307 103 106 108 103 113 117 118 118 118 116 116
133 132 131 130 131 135 127 118 115 113 114 115 114 114 115 116 114 115 116 110 110 109 108 108 108 110 112 111 112 117 146 221 105 110 103 107 118 121 121 121 122 121 121
140 138 139 135 139 136 129 128 130 124 120 128 123 126 142 134 124 130 103 112 114 113 112 111 114 119 125 123 122 143 190 136 104 94 93 107 123 125 125 125 126 126 126
152 151 149 142 145 139 132 134 142 134 131 131 123 133 128 106 107 107 114 117 119 120 121 116 125 151 173 138 142 186 156 111 110 110 105 119 129 132 131 129 129 130 131
158 157 152 148 151 142 139 142 133 123 127 128 124 127 116 127 126 125 136 138 141 149 140 140 166 151 122 99 123 127 98 103 107 112 116 131 138 140 140 139 139 140 142
165 162 156 152 155 152 144 140 147 141 142 134 133 149 133 127 126 118 131 133 149 137 126 138 122 107 101 115 116 110 118 118 104 100 121 140 149 152 151 150 152 153 154
170 168 162 165 160 158 151 163 150 145 140 131 136 134 141 144 138 123 120 130 144 130 146 142 127 121 125 135 134 122 111 101 110 124 126 149 161 166 165 166 169 168 170
177 173 169 173 167 165 167 169 158 155 148 151 151 139 158 142 130 139 150 146 133 142 119 132 128 140 156 131 139 133 145 126 127 139 141 151 167 176 181 182 181 180 183
181 175 176 176 174 176 178 180 176 171 171 167 152 155 172 163 147 166 154 170 153 142 137 172 141 173 186 169 156 158 161 170 148 146 161 163 166 179 189 194 196 196 197
182 179 183 183 178 180 183 191 188 187 178 178 175 169 177 172 172 190 174 172 155 179 177 169 195 215 195 195 174 187 166 168 186 180 191 193 190 176 182 193 201 205 208
185 183 186 190 184 185 185 191 198 190 198 195 187 183 176 187 188 204 191 158 196 204 206 220 160 225 212 222 209 200 207 199 195 210 206 206 201 208 190 174 196 209 215
187 187 189 190 189 188 190 192 202 200 199 202 197 189 190 194 197 211 199 186 211 213 212 226 208 230 251 239 255 251 242 225 222 216 218 209 203 211 215 195 191 201 211
188 189 191 193 188 192 196 199 198 199 201 201 202 192 198 206 203 213 219 184 214 218 227 228 223 213 225 225 238 238 236 225 223 225 227 226 210 212 215 213 222 217 196
191 192 192 195 193 198 200 205 208 209 207 205 211 193 205 208 210 208 212 209 206 219 224 228 228 244 236 215 242 262 254 227 213 219 215 220 226 217 218 215 219 224 240
195 195 197 198 197 201 200 201 198 196 214 208 209 204 208 211 214 223 217 223 217 225 226 229 228 233 242 232 227 245 265 267 275 206 218 224 223 227 229 223 221 221 226
198 196 198 198 200 200 201 207 206 207 210 210 212 210 208 214 220 220 226 229 229 234 235 236 226 233 241 242 224 230 250 285 283 267 224 216 216 224 234 235 227 219 222
197 195 196 197 200 199 202 206 211 218 218 214 215 217 224 217 224 224 222 228 231 235 237 243 239 235 238 244 242 232 232 234 243 260 267 250 227 225 222 226 232 233 226
197 198 197 195 199 199 202 207 211 219 220 221 221 219 219 218 221 223 224 225 229 235 234 236 238 235 241 245 249 245 239 242 244 248 260 260 252 239 228 232 235 234 233